TimeCDT,TemperatureF,Dew PointF,Humidity,Sea Level PressureIn,VisibilityMPH,Wind Direction,Wind SpeedMPH,Gust SpeedMPH,PrecipitationIn,Events,Conditions,WindDirDegrees,DateUTC
12:15 AM,32.0,31.5,98,30.01,3.0,North,4.6,-,N/A,,Overcast,360,2013-04-10 05:15:00
12:35 AM,32.0,31.1,96,30.00,3.0,North,4.6,-,N/A,,Overcast,360,2013-04-10 05:35:00
12:55 AM,30.0,29.3,97,30.00,2.5,North,5.8,-,N/A,,Overcast,350,2013-04-10 05:55:00
1:15 AM,29.8,29.3,98,30.03,2.0,NNW,5.8,-,N/A,,Overcast,340,2013-04-10 06:15:00
1:35 AM,29.3,28.8,98,30.01,2.5,North,3.5,-,N/A,,Unknown,350,2013-04-10 06:35:00
1:55 AM,29.7,29.1,98,29.98,2.5,North,4.6,-,N/A,,Overcast,350,2013-04-10 06:55:00
2:15 AM,29.8,29.3,98,29.99,2.5,North,4.6,-,N/A,,Overcast,350,2013-04-10 07:15:00
2:35 AM,30.0,29.3,97,29.98,2.5,North,3.5,-,N/A,,Overcast,360,2013-04-10 07:35:00
2:55 AM,30.2,29.7,98,29.95,2.5,North,3.5,-,N/A,,Overcast,360,2013-04-10 07:55:00
3:15 AM,30.6,30.0,98,29.93,3.0,North,4.6,-,N/A,,Overcast,360,2013-04-10 08:15:00
3:35 AM,30.9,30.6,99,29.96,3.0,NNE,3.5,-,N/A,,Overcast,20,2013-04-10 08:35:00
3:55 AM,31.5,31.1,99,29.94,3.0,North,4.6,-,N/A,,Overcast,10,2013-04-10 08:55:00
4:15 AM,32.0,31.8,99,29.95,2.5,North,3.5,-,N/A,,Overcast,360,2013-04-10 09:15:00
4:35 AM,32.0,32.0,100,29.97,2.5,Calm,Calm,-,N/A,,Overcast,0,2013-04-10 09:35:00
4:55 AM,32.4,32.0,99,29.96,2.5,Calm,Calm,-,N/A,,Overcast,0,2013-04-10 09:55:00
5:15 AM,32.4,32.0,99,29.95,2.5,North,3.5,-,N/A,,Overcast,10,2013-04-10 10:15:00
5:35 AM,32.5,32.2,99,29.93,2.5,Calm,Calm,-,N/A,,Overcast,0,2013-04-10 10:35:00
5:55 AM,32.5,32.2,99,29.96,3.0,Calm,Calm,-,N/A,,Overcast,0,2013-04-10 10:55:00
6:15 AM,32.5,32.2,99,29.96,3.0,Calm,Calm,-,N/A,,Overcast,0,2013-04-10 11:15:00
6:35 AM,32.4,32.0,99,29.92,4.0,NNE,3.5,-,N/A,,Overcast,30,2013-04-10 11:35:00
6:55 AM,32.2,32.0,99,29.86,7.0,NE,3.5,-,N/A,,Overcast,50,2013-04-10 11:55:00
7:15 AM,32.4,32.0,99,29.95,10.0,Calm,Calm,-,N/A,,Overcast,0,2013-04-10 12:15:00
7:35 AM,32.4,32.0,99,29.96,10.0,Calm,Calm,-,N/A,,Overcast,0,2013-04-10 12:35:00
7:55 AM,32.5,32.0,98,29.98,10.0,Calm,Calm,-,N/A,,Overcast,0,2013-04-10 12:55:00
8:15 AM,32.9,32.0,96,30.00,1.2,Calm,Calm,-,N/A,,Overcast,0,2013-04-10 13:15:00
8:35 AM,32.4,32.0,99,29.97,2.0,Calm,Calm,-,N/A,,Overcast,0,2013-04-10 13:35:00
8:55 AM,32.4,32.0,99,29.98,1.8,Calm,Calm,-,N/A,,Overcast,0,2013-04-10 13:55:00
9:15 AM,32.4,32.0,99,30.00,1.8,Calm,Calm,-,N/A,,Overcast,0,2013-04-10 14:15:00
9:35 AM,32.2,32.0,99,29.98,2.5,Calm,Calm,-,N/A,,Overcast,0,2013-04-10 14:35:00
9:55 AM,32.2,32.0,99,29.98,7.0,Calm,Calm,-,N/A,,Overcast,0,2013-04-10 14:55:00
10:15 AM,32.4,32.0,99,29.96,10.0,Calm,Calm,-,N/A,,Overcast,0,2013-04-10 15:15:00
10:35 AM,32.4,32.0,99,29.98,10.0,Calm,Calm,-,N/A,,Overcast,0,2013-04-10 15:35:00
10:55 AM,32.4,32.0,99,29.98,10.0,Calm,Calm,-,N/A,,Overcast,0,2013-04-10 15:55:00
11:15 AM,32.4,32.0,99,29.98,10.0,Calm,Calm,-,N/A,,Overcast,0,2013-04-10 16:15:00
11:35 AM,32.4,31.8,98,29.98,10.0,Calm,Calm,-,N/A,,Overcast,0,2013-04-10 16:35:00
12:15 PM,32.2,31.6,98,30.00,5.0,Calm,Calm,-,N/A,,Overcast,0,2013-04-10 17:15:00
12:35 PM,32.2,31.6,98,30.00,7.0,Calm,Calm,-,N/A,Snow,Light Snow,0,2013-04-10 17:35:00
1:15 PM,32.0,31.8,99,30.00,0.8,Calm,Calm,-,0.01,Snow,Light Snow,0,2013-04-10 18:15:00
1:35 PM,32.0,32.0,100,29.97,1.0,Calm,Calm,-,0.02,,Overcast,0,2013-04-10 18:35:00
1:55 PM,32.2,32.0,99,29.96,4.0,Calm,Calm,-,0.02,Rain,Light Rain,0,2013-04-10 18:55:00
2:15 PM,32.2,31.8,99,29.96,10.0,Calm,Calm,-,N/A,,Overcast,0,2013-04-10 19:15:00
2:35 PM,32.5,32.0,98,29.96,10.0,Calm,Calm,-,N/A,,Overcast,0,2013-04-10 19:35:00
2:55 PM,32.9,32.0,96,29.93,10.0,North,3.5,-,N/A,,Overcast,10,2013-04-10 19:55:00
3:15 PM,32.9,32.0,96,29.94,10.0,Calm,Calm,-,N/A,,Overcast,0,2013-04-10 20:15:00
3:35 PM,32.5,31.8,97,29.95,10.0,Calm,Calm,-,N/A,,Overcast,0,2013-04-10 20:35:00
3:55 PM,32.5,31.6,96,29.94,10.0,Calm,Calm,-,N/A,,Overcast,0,2013-04-10 20:55:00
4:15 PM,32.4,31.1,95,29.92,10.0,Calm,Calm,-,N/A,,Overcast,0,2013-04-10 21:15:00
4:35 PM,32.4,31.1,95,29.92,10.0,Calm,Calm,-,N/A,,Overcast,0,2013-04-10 21:35:00
4:55 PM,32.2,31.1,96,29.89,10.0,Calm,Calm,-,N/A,,Overcast,0,2013-04-10 21:55:00
5:15 PM,32.2,31.1,96,29.91,10.0,Calm,Calm,-,N/A,,Overcast,0,2013-04-10 22:15:00
5:35 PM,32.0,31.1,96,29.88,10.0,Calm,Calm,-,N/A,,Overcast,0,2013-04-10 22:35:00
5:55 PM,32.0,31.1,96,29.88,10.0,Calm,Calm,-,N/A,,Overcast,0,2013-04-10 22:55:00
6:15 PM,32.0,31.1,96,29.87,7.0,Calm,Calm,-,N/A,,Overcast,0,2013-04-10 23:15:00
6:35 PM,32.0,30.9,96,29.86,10.0,Calm,Calm,-,N/A,,Overcast,0,2013-04-10 23:35:00
6:55 PM,32.0,30.9,96,29.86,5.0,Calm,Calm,-,N/A,,Overcast,0,2013-04-10 23:55:00
7:15 PM,31.8,31.1,97,29.86,1.8,Calm,Calm,-,N/A,Snow,Light Snow,0,2013-04-11 00:15:00
7:35 PM,31.8,31.1,97,29.85,4.0,Calm,Calm,-,N/A,,Overcast,0,2013-04-11 00:35:00
7:55 PM,31.6,31.1,98,29.85,2.5,Calm,Calm,-,N/A,Snow,Light Snow,0,2013-04-11 00:55:00
8:15 PM,31.6,31.1,98,29.85,2.5,Calm,Calm,-,N/A,Snow,Light Snow,0,2013-04-11 01:15:00
8:35 PM,31.5,30.9,98,29.83,2.0,Calm,Calm,-,N/A,Snow,Light Snow,0,2013-04-11 01:35:00
8:55 PM,31.5,30.9,98,29.84,2.0,Calm,Calm,-,N/A,Snow,Light Snow,0,2013-04-11 01:55:00
9:15 PM,31.3,30.9,99,29.85,1.5,Calm,Calm,-,N/A,Snow,Light Snow,0,2013-04-11 02:15:00
9:55 PM,31.1,30.7,99,29.86,1.2,Calm,Calm,-,0.01,Snow,Snow,0,2013-04-11 02:55:00
10:15 PM,30.7,30.2,98,29.85,1.5,Calm,Calm,-,N/A,Snow,Light Snow,0,2013-04-11 03:15:00
10:35 PM,30.6,30.2,99,29.85,2.0,Calm,Calm,-,0.01,Snow,Light Snow,0,2013-04-11 03:35:00
10:55 PM,30.6,30.2,99,29.86,0.8,Calm,Calm,-,0.01,Snow,Snow,0,2013-04-11 03:55:00
11:15 PM,30.2,30.0,99,29.84,0.8,Calm,Calm,-,N/A,Snow,Snow,0,2013-04-11 04:15:00
11:35 PM,30.2,30.2,100,29.84,1.2,Calm,Calm,-,0.01,Snow,Snow,0,2013-04-11 04:35:00
11:55 PM,30.2,30.0,99,29.82,1.0,Calm,Calm,-,0.01,Snow,Snow,0,2013-04-11 04:55:00